Terminal Aerodrome Forecast
Issued by NWS Boise, ID

Home | Current Version | Previous Version | Text Only | Print | Product List | Glossary On
Versions: 1 2 3 4 5 6 7 8 9 10 11 12 13
000
FTUS45 KBOI 301120
TAFBNO
TAF
KBNO 301120Z 3012/0112 VRB03KT P6SM SKC
     FM301900 18012G22KT P6SM SCT200
     FM010300 24010KT P6SM BKN150=

USA.gov is the U.S. government's official web portal to all federal, state and local government web resources and services.